Regional Weather Roundup
Issued by NWS

Home | Current Version | Previous Version | Graphics & Text | Print | Product List | Glossary On
Versions: 1 2 3 4 5 6 7 8 9 10 11 12 13 14 15 16 17 18 19 20 21 22 23 24 25 26 27 28 29 30 31 32 33 34 35 36 37 38 39 40 41 42 43 44 45 46 47 48 49 50
000
ASUS43 KIND 212259
RWRIN

WEATHER ROUNDUP FOR INDIANA
NATIONAL WEATHER SERVICE INDIANAPOLIS IN
700 PM EDT MON JUL 21 2014

NOTE: "FAIR" INDICATES FEW OR NO CLOUDS BELOW 12,000 FEET WITH NO
SIGNIFICANT WEATHER AND/OR OBSTRUCTIONS TO VISIBILITY.

* - STATION DOES NOT REPORT WEATHER SUCH AS PRECIPITATION OR FOG.

+ - STATION NOT QUALITY CONTROLLED BY THE NATIONAL WEATHER SERVICE.
    USE DATA WITH CAUTION...ESPECIALLY DEWPOINT AND RELATIVE
    HUMIDITY OBSERVATIONS.

INZ001>003-010>013-019-020-220000-
NORTHWEST INDIANA

CITY           SKY/WX    TMP DP  RH WIND       PRES   REMARKS
GARY /AIRPORT/ MOSUNNY   84  63  48 S9        30.07S
KNOX *+        MOSUNNY   83  62  49 S7        30.08S
MONTICELLO +   SUNNY     82  65  56 S3        30.07F
RENSSELAER +   SUNNY     81  66  61 S3        30.09S
VALPARAISO     SUNNY     81  63  54 S5        30.09S

$$

LMZ046-743>745-220000-
SOUTHERN LAKE MICHIGAN

STATION/POSITION TIME  TEMP WIND        PRES
                       AIR  DIR/SP/G
                 (UTC) (F)  (DEG/KT/KT) (MB)
MICHIGAN CITY    2200   74   30/  9/ 11   N/A

$$

INZ004-005-014>016-021>024-220000-
NORTH CENTRAL INDIANA

CITY           SKY/WX    TMP DP  RH WIND       PRES   REMARKS
GOSHEN         SUNNY     83  62  49 SW5       30.09S
SOUTH BEND     MOSUNNY   84  62  47 S7        30.09F
WARSAW +       CLOUDY    82  63  51 CALM      30.09S

$$

INZ006>009-017-018-025>027-220000-
NORTHEAST INDIANA

CITY           SKY/WX    TMP DP  RH WIND       PRES   REMARKS
ANGOLA *+      SUNNY     84  63  48 SW3       30.10S
FORT WAYNE     MOSUNNY   84  60  44 SE5       30.10S

$$

INZ028-029-035-036-043>045-051>053-220000-
WEST CENTRAL INDIANA

CITY           SKY/WX    TMP DP  RH WIND       PRES   REMARKS
GREENCASTLE +  SUNNY     77  66  69 CALM      30.10R
LAFAYETTE      SUNNY     82  64  54 S5        30.08S
TERRE HAUTE    MOSUNNY   82  66  58 SE3       30.08S

$$

INZ030>032-037>040-046>048-054>057-064-065-220000-
CENTRAL INDIANA

CITY           SKY/WX    TMP DP  RH WIND       PRES   REMARKS
INDIANAPOLIS   MOSUNNY   83  62  49 S6        30.08S
-EAGLE CREEK   CLOUDY    85  61  44 W7        30.08S
KOKOMO *+      SUNNY     82  63  51 SE5       30.09S
MT COMFORT *+  SUNNY     84  66  54 E7        30.10R
SHELBYVILLE    SUNNY     85  65  51 SE3       30.09S
ZIONSVILLE +   PTSUNNY   83  61  46 N3        30.10S

$$

INZ033-034-041-042-049-050-058-059-220000-
EAST CENTRAL INDIANA

CITY           SKY/WX    TMP DP  RH WIND       PRES   REMARKS
MUNCIE         SUNNY     83  59  44 SE6       30.10S

$$

INZ060-061-067>069-081>083-085>088-220000-
SOUTHWEST INDIANA

CITY           SKY/WX    TMP DP  RH WIND       PRES   REMARKS
EVANSVILLE     MOSUNNY   87  64  46 CALM      30.06S
HUNTINGBURG *+ SUNNY     86  64  48 N3        30.07R

$$

INZ062-063-066-070>080-084-089>092-220000-
SOUTH CENTRAL AND SOUTHEAST INDIANA

CITY           SKY/WX    TMP DP  RH WIND       PRES   REMARKS
BLOOMINGTON    SUNNY     83  64  52 CALM      30.09R
SEYMOUR +      SUNNY     82  46  28 CALM      30.07S

$$




USA.gov is the U.S. government's official web portal to all federal, state and local government web resources and services.